[[{"header":{"parameterUnit":"m.s-1","parameterCategory":1,"la1":30.2991,"la2":30.254,"lo1":-89.0895,"lo2":-89.0444,"dy":0.0017,"dx":0.0017,"nx":28,"ny":28,"refTime":"2024-07-03T21:00:00:Z","depth":0,"parameterNumber":2,"parameterNumberName":"U-component_of_WINDS"},"data":[0,0,0,0,0,0,0,0,0,0,0,0,0,0,0,0,0,0,0,0,0,0,0,0,0,0,0,0,0,0,0,0,0,0,0,0,0,0,0,0,0,0,0,0,0,0,0,0,0,0,0,0,0,0,0,0,0,0,3.1736,3.1737,0,3.183,3.1831,3.1832,3.1794,3.1792,3.1789,3.1787,3.1891,3.1896,3.19,0,0,0,0,0,0,0,0,0,0,0,0,0,3.1529,3.1533,3.1736,3.1737,3.1738,3.183,3.1831,3.1833,3.1794,3.1792,3.1789,3.1786,3.1889,3.1895,3.1901,0,0,0,0,0,0,0,0,0,0,0,0,0,3.1621,3.1535,3.1736,3.173,3.173,3.183,3.1831,3.1833,3.1795,3.1791,3.1788,3.1785,3.1887,3.1895,3.1902,3.2015,0,0,3.1924,3.1927,0,0,0,0,0,0,0,0,3.1616,3.1629,3.173,3.1731,3.1731,3.1797,3.1797,3.1894,3.1796,3.1771,3.1787,3.1783,3.1863,3.1872,3.1897,3.2019,3.2024,3.1925,3.1929,3.1932,3.1934,0,0,0,0,0,0,0,3.161,3.1625,3.1773,3.1731,3.1732,3.1725,3.1734,3.1815,3.1835,3.1773,3.177,3.1781,3.1863,3.189,3.1899,3.2025,3.1924,3.1931,3.1935,3.1938,3.2246,3.225,0,0,0,0,0,0,3.1602,3.162,3.177,3.1776,3.1664,3.1731,3.1742,3.1779,3.1834,3.1839,3.1784,3.1779,3.188,3.1891,3.1903,3.2039,3.1932,3.1939,3.1943,3.2242,3.2247,3.2251,0,0,0,0,0,0,3.1598,3.1616,3.1767,3.1697,3.1716,3.1739,3.1781,3.1783,3.181,3.1842,3.1846,3.1808,3.1877,3.1893,3.1987,3.2042,3.1942,3.1949,3.2238,3.2244,3.2249,3.2312,0,0,0,0,0,0,3.1592,3.1615,3.1656,3.1698,3.172,3.1847,3.1784,3.1787,3.1822,3.1817,3.1866,3.1871,3.1876,3.1976,3.1994,3.205,3.1955,3.2233,3.224,3.2247,3.2305,3.2319,3.2331,0,0,0,0,0,3.1585,3.1672,3.1658,3.1677,3.1771,3.185,3.1863,3.1864,3.1827,3.187,3.189,3.187,3.2033,3.1986,3.2006,3.2065,3.223,3.2238,3.2247,3.2299,3.2316,3.2331,0,0,0,0,0,0,3.1638,3.1677,3.1663,3.1765,3.1804,3.1843,3.1898,3.1882,3.1935,3.1928,3.1929,3.1941,3.2038,3.2061,3.2008,3.2178,3.2126,3.2139,3.2159,3.2176,3.2188,3.2181,3.1961,0,0,0,0,0,3.1661,3.1719,3.1751,3.1839,3.1859,3.1875,3.1909,3.1907,3.1949,3.1966,3.1993,3.2036,3.2097,3.2138,3.2196,3.2308,3.2319,3.2359,3.2372,3.2382,3.2394,3.2456,3.2474,3.2279,3.2279,3.2279,0,0,3.171,3.1739,3.1776,3.185,3.188,3.1942,3.1889,3.1958,3.2005,3.1977,3.2067,3.2089,3.2137,3.2241,3.2288,3.2263,3.245,3.2393,3.2401,3.2407,3.2466,3.2485,3.2501,3.2285,3.2284,3.2283,0,0,3.1831,3.1858,3.1934,3.1965,3.201,3.2021,3.2039,3.2081,3.2093,3.2183,3.2164,3.2221,3.2326,3.2361,3.2393,3.2528,3.2512,3.2548,3.2616,3.2676,3.2691,3.2705,3.2754,3.2771,3.2559,3.2559,3.2559,0,3.1887,3.1978,3.1976,3.2045,3.2079,3.2055,3.2133,3.2164,3.2227,3.2252,3.2223,3.2354,3.2385,3.2497,3.253,3.2556,3.2578,3.2542,3.2689,3.2703,3.2716,3.2762,3.278,3.2563,3.2562,3.2562,3.2562,0,3.2045,3.2109,3.2165,3.2224,3.2265,3.2338,3.2349,3.2391,3.2385,3.2399,3.2492,3.2528,3.2593,3.262,3.2616,3.2732,3.2715,3.2687,3.2635,3.2738,3.2782,3.28,3.2569,3.2567,3.2566,3.2565,0,0,3.2202,3.2258,3.2279,3.2306,3.2355,3.2405,3.2479,3.254,3.2576,3.2621,3.2684,3.2773,3.2748,3.2784,3.2784,3.2837,3.2943,3.2803,3.2804,3.2828,3.3074,3.3094,3.3114,3.2931,3.2935,3.2938,3.3069,0,3.2327,3.2453,3.2454,3.2571,3.2631,3.2609,3.2673,3.2711,3.2726,3.2781,3.2799,3.2862,3.2824,3.2846,3.2897,3.2919,3.2992,3.2909,3.2992,3.2995,3.298,3.3137,3.3159,3.3281,3.3087,3.309,3.3092,0,3.249,3.2538,3.2661,3.2701,3.2726,3.2783,3.284,3.2892,3.2935,3.2943,3.2983,3.2975,3.3052,3.2997,3.3105,3.3048,3.3082,3.3098,3.3103,3.3111,3.3049,3.315,3.3321,3.3339,3.3119,3.3116,3.3115,0,3.2593,3.2688,3.2774,3.2798,3.2847,3.2888,3.291,3.295,3.2987,3.3038,3.3062,3.3121,3.3154,3.3202,3.3211,3.317,3.3319,3.3265,3.3329,3.3329,3.3361,3.3359,3.354,3.3383,3.3383,3.3382,3.3382,0,3.2733,3.2809,3.2821,3.2874,3.2959,3.2959,3.3044,3.3064,3.31,3.3158,3.3143,3.3198,3.3207,3.3265,3.3273,3.3361,3.3376,3.3386,3.3387,3.3387,3.3386,3.3409,3.3401,3.3387,3.3386,3.3385,3.3384,0,3.2862,3.2873,3.2965,3.3003,3.3015,3.3076,3.311,3.3161,3.3175,3.3248,3.3266,3.3288,3.3356,3.3369,3.345,3.3455,3.356,3.3553,3.3544,3.3544,3.3607,3.3601,3.3809,3.3837,3.3662,3.3664,3.3665,0,3.2951,3.3008,3.3053,3.3089,3.3113,3.3173,3.321,3.3213,3.3253,3.3307,3.3353,3.3418,3.347,3.3579,3.3604,3.3666,3.366,3.3729,3.3669,3.3668,3.3661,3.3658,3.3664,3.374,3.3742,3.3744,3.3745,0,3.3107,3.3109,3.3162,3.3218,3.3262,3.3306,3.3348,3.338,3.3389,3.3435,3.3502,3.3543,3.3624,3.3689,3.3751,3.3777,3.3764,3.3764,3.3782,3.3782,3.3775,3.378,3.3576,3.3759,3.3757,3.3756,3.3756,3.3755,3.3219,3.3269,3.3308,3.3368,3.34,3.3439,3.3489,3.3509,3.3564,3.3629,3.3628,3.3702,3.3746,3.3826,3.3856,3.3915,3.3894,3.392,3.3927,3.3933,3.3939,3.3765,3.3927,3.3926,3.3926,3.3926,3.3925,0,3.3375,3.3398,3.3453,3.3512,3.3559,3.354,3.3586,3.3628,3.3692,3.3732,3.3784,3.3862,3.3925,3.3955,3.4018,3.406,3.4055,3.4076,3.4073,3.408,3.3954,3.3932,3.4079,3.4079,3.4079,3.4079,3.4079,3.4079,3.3461,3.3546,3.3553,3.3653,3.3677,3.3747,3.3775,3.3813,3.3845,3.3931,3.3983,3.4001,3.4038,3.4103,3.4161,3.4169,3.4193,3.4217,3.4221,3.4104,3.4088,3.4074,3.4053,3.4222,3.4222,3.4341,3.4342,3.4343]},{"header":{"parameterUnit":"m.s-1","parameterCategory":1,"la1":30.2991,"la2":30.254,"lo1":-89.0895,"lo2":-89.0444,"dy":0.0017,"dx":0.0017,"nx":28,"ny":28,"refTime":"2024-07-03T21:00:00:Z","depth":0,"parameterNumber":3,"parameterNumberName":"V-component_of_WINDS"},"data":[0,0,0,0,0,0,0,0,0,0,0,0,0,0,0,0,0,0,0,0,0,0,0,0,0,0,0,0,0,0,0,0,0,0,0,0,0,0,0,0,0,0,0,0,0,0,0,0,0,0,0,0,0,0,0,0,0,0,3.2727,3.2728,0,3.2781,3.2781,3.2782,3.2796,3.2796,3.2796,3.2795,3.2845,3.2847,3.2849,0,0,0,0,0,0,0,0,0,0,0,0,0,3.2631,3.2633,3.2727,3.2728,3.2728,3.278,3.2781,3.2782,3.2796,3.2796,3.2795,3.2795,3.2845,3.2847,3.2849,0,0,0,0,0,0,0,0,0,0,0,0,0,3.2677,3.2633,3.2727,3.2742,3.2744,3.278,3.2781,3.2782,3.2796,3.2796,3.2795,3.2795,3.2844,3.2847,3.2849,3.2873,0,0,3.2856,3.2857,0,0,0,0,0,0,0,0,3.2675,3.2681,3.2739,3.2741,3.2743,3.2781,3.2766,3.2812,3.2796,3.2776,3.2795,3.2795,3.2824,3.2828,3.2839,3.2875,3.2877,3.2857,3.2858,3.2859,3.286,0,0,0,0,0,0,0,3.2671,3.2678,3.2748,3.274,3.2742,3.2744,3.275,3.2775,3.2802,3.2778,3.2779,3.2785,3.2825,3.2837,3.284,3.2878,3.2856,3.2859,3.286,3.2861,3.2933,3.2934,0,0,0,0,0,0,3.2666,3.2676,3.2746,3.275,3.2707,3.2746,3.2753,3.2769,3.2802,3.2806,3.2786,3.2786,3.2833,3.2837,3.2842,3.2871,3.2859,3.2861,3.2863,3.2933,3.2933,3.2934,0,0,0,0,0,0,3.2664,3.2673,3.2744,3.2713,3.2722,3.2748,3.2767,3.2771,3.2782,3.2808,3.2812,3.2793,3.2833,3.2839,3.2865,3.2873,3.2862,3.2865,3.2932,3.2933,3.2934,3.2929,0,0,0,0,0,0,3.2661,3.2672,3.2683,3.2713,3.2724,3.2768,3.2767,3.2772,3.2787,3.2788,3.2816,3.282,3.2833,3.2861,3.2867,3.2876,3.2866,3.2932,3.2933,3.2934,3.2928,3.2929,3.293,0,0,0,0,0,3.2658,3.2679,3.2683,3.2692,3.2739,3.2768,3.2774,3.279,3.2788,3.2798,3.2813,3.2819,3.2871,3.2864,3.2871,3.288,3.2931,3.2932,3.2933,3.2928,3.2929,3.293,0,0,0,0,0,0,3.2648,3.2683,3.2689,3.2721,3.2741,3.2771,3.2784,3.2791,3.2812,3.2812,3.2829,3.2835,3.2859,3.2872,3.2864,3.2903,3.2901,3.2903,3.2894,3.2895,3.2896,3.2892,3.2869,0,0,0,0,0,3.2649,3.2673,3.2701,3.2727,3.2737,3.2759,3.2772,3.2782,3.2804,3.2813,3.2831,3.285,3.287,3.2884,3.2904,3.293,3.2935,3.2939,3.294,3.2941,3.2943,3.2955,3.2957,3.2937,3.2937,3.2937,0,0,3.2653,3.2675,3.2688,3.2725,3.2743,3.2764,3.2766,3.2789,3.2804,3.2816,3.2842,3.2855,3.2878,3.2903,3.2915,3.2915,3.2949,3.2942,3.2942,3.2944,3.2956,3.2958,3.2959,3.2938,3.2938,3.2938,0,0,3.2669,3.269,3.2712,3.2729,3.2755,3.2769,3.2774,3.2803,3.2812,3.2839,3.2847,3.2864,3.29,3.2915,3.2927,3.2946,3.2951,3.2952,3.2956,3.2968,3.297,3.2971,3.2976,3.2978,3.2954,3.2954,3.2954,0,3.267,3.2704,3.2722,3.2744,3.2759,3.2771,3.2791,3.2807,3.2838,3.2847,3.2846,3.2889,3.2905,3.2934,3.2938,3.2948,3.2953,3.2949,3.2968,3.297,3.2971,3.2977,3.2979,3.2954,3.2954,3.2954,3.2954,0,3.2702,3.2725,3.274,3.277,3.2787,3.2808,3.2826,3.284,3.2848,3.2861,3.2886,3.2906,3.2929,3.2937,3.2945,3.2965,3.2964,3.2965,3.2963,3.2973,3.2978,3.298,3.2954,3.2954,3.2954,3.2954,0,0,3.2715,3.2754,3.2759,3.2772,3.2801,3.2818,3.2839,3.2863,3.2873,3.2893,3.291,3.2938,3.2939,3.2953,3.2963,3.2973,3.2985,3.2973,3.2974,3.2973,3.3006,3.3004,3.3006,3.2988,3.2988,3.2989,3.3004,0,3.2735,3.2774,3.2789,3.282,3.284,3.285,3.2868,3.2886,3.2898,3.2915,3.2928,3.2948,3.2949,3.2957,3.2968,3.2981,3.2991,3.298,3.3001,3.3002,3.2995,3.3009,3.3008,3.3021,3.3006,3.3006,3.3007,0,3.2763,3.2784,3.2817,3.2842,3.2851,3.2867,3.2888,3.2905,3.2925,3.2933,3.2948,3.2956,3.2975,3.2972,3.2997,3.2989,3.2998,3.3006,3.3007,3.3009,3.3005,3.3011,3.3026,3.3028,3.301,3.301,3.301,0,3.2767,3.2804,3.2828,3.2839,3.2868,3.2879,3.2891,3.2911,3.2923,3.2942,3.295,3.297,3.298,3.2994,3.3007,3.3003,3.303,3.3028,3.3036,3.3035,3.3041,3.304,3.3057,3.3048,3.3048,3.3048,3.3048,0,3.2787,3.2806,3.283,3.2845,3.2866,3.2881,3.2901,3.2914,3.2931,3.2947,3.2956,3.297,3.2986,3.3002,3.3011,3.303,3.3035,3.304,3.3042,3.3039,3.3038,3.3045,3.3044,3.3048,3.3048,3.3048,3.3048,0,3.2795,3.2812,3.2839,3.2864,3.2871,3.2885,3.2906,3.2919,3.2931,3.2951,3.2956,3.2975,3.2993,3.3007,3.3031,3.3037,3.3056,3.3059,3.305,3.3051,3.3057,3.3056,3.3078,3.3081,3.3071,3.3071,3.3071,0,3.2806,3.2821,3.2848,3.286,3.2873,3.2891,3.2904,3.2919,3.2932,3.2955,3.2965,3.2984,3.3,3.3029,3.3043,3.306,3.3063,3.307,3.3066,3.3061,3.3062,3.3061,3.3061,3.307,3.307,3.307,3.307,0,3.2823,3.283,3.285,3.2871,3.2886,3.2904,3.2921,3.2929,3.2947,3.296,3.298,3.2993,3.3017,3.3035,3.3054,3.3064,3.3069,3.3071,3.3074,3.307,3.3064,3.3066,3.305,3.3071,3.3071,3.3071,3.307,3.307,3.2832,3.2846,3.2866,3.2886,3.2901,3.2917,3.293,3.2944,3.2961,3.2982,3.299,3.3009,3.3026,3.3052,3.3062,3.3076,3.3076,3.308,3.3081,3.3082,3.3081,3.3062,3.308,3.308,3.308,3.308,3.308,0,3.2849,3.2862,3.2881,3.2905,3.292,3.2925,3.2944,3.2956,3.2973,3.2989,3.3005,3.3026,3.3043,3.3059,3.3076,3.3084,3.3087,3.3088,3.3087,3.3089,3.308,3.3076,3.3086,3.3086,3.3086,3.3086,3.3086,3.3086,3.2859,3.2881,3.289,3.2919,3.2932,3.2952,3.2962,3.2976,3.2988,3.3012,3.3027,3.3037,3.3052,3.307,3.3086,3.3089,3.3095,3.3095,3.31,3.3091,3.309,3.3089,3.3086,3.3097,3.3097,3.3107,3.3107,3.3108]}]]